Find NNS 30040

NORAD ID: 1420 Int'l Des: 1965-048 Owner: BUWEPS Country: US operational
LEOCIRCULARPOLAR

Aktuelle Ansicht

3D-Globus wird geladen...

Über NNS 30040

Beschreibung wird geladen...

Nächste Überflüge

Passes for default location (London). Set your location on the main map for personalized predictions.

Höhenverlauf

Loading altitude history...

Zweizeiliger Elementsatz

1 1420U 65048A 26159.78686669 .00000104 00000-0 14085-3 0 9995
2 1420 89.8782 286.2937 0075473 95.5255 18.4727 13.51906280 2326
Epoch: 8. Juni 2026 • Age: 6 hours

Aktueller Status

Höhe 1112.3 km
Geschwindigkeit 7.28 km/s
Subsatellitenpunkt -39.88°S, 161.99°W
Typ other

Most Searched